| time (UTC) | temp F | wind direction | speed MPH | gust MPH | rain 1hr in | rain 24hr in | rain mn in | humidity % | barometer mb |
| 20260905153028 | 87 | 270 | 10.0 | 17.0 | 0.00 | 0.00 | 0.00 | 39 | 1018.0 |
| 20260905152028 | 86 | 258 | 10.0 | 20.0 | 0.00 | 0.00 | 0.00 | 40 | 1018.0 |
| 20260905151512 | 87 | 281 | 13.0 | 20.0 | 0.00 | 0.00 | 0.00 | 39 | 1018.1 |
| 20260905151030 | 87 | 214 | 12.0 | 20.0 | 0.00 | 0.00 | 0.00 | 39 | 1018.1 |
| 20260905150513 | 87 | 253 | 11.0 | 16.0 | 0.00 | 0.00 | 0.00 | 38 | 1017.9 |
| 20260905145513 | 87 | 266 | 10.0 | 18.0 | 0.00 | 0.00 | 0.00 | 37 | 1017.9 |
| 20260905144028 | 88 | 253 | 9.0 | 18.0 | 0.00 | 0.00 | 0.00 | 36 | 1017.9 |
| 20260905143512 | 88 | 280 | 10.0 | 18.0 | 0.00 | 0.00 | 0.00 | 36 | 1017.9 |
| 20260905142513 | 88 | 257 | 10.0 | 17.0 | 0.00 | 0.00 | 0.00 | 35 | 1017.9 |
| 20260905141030 | 88 | 266 | 10.0 | 21.0 | 0.00 | 0.00 | 0.00 | 34 | 1017.9 |
| 20260905140013 | 89 | 224 | 12.0 | 20.0 | 0.00 | 0.00 | 0.00 | 34 | 1018.0 |
| 20260905135028 | 89 | 241 | 12.0 | 18.0 | 0.00 | 0.00 | 0.00 | 33 | 1018.1 |
| 20260905134512 | 89 | 201 | 9.0 | 17.0 | 0.00 | 0.00 | 0.00 | 33 | 1018.0 |
| 20260905134028 | 89 | 218 | 9.0 | 20.0 | 0.00 | 0.00 | 0.00 | 33 | 1018.0 |
| 20260905133030 | 89 | 245 | 12.0 | 24.0 | 0.00 | 0.00 | 0.00 | 33 | 1018.1 |
| 20260905132512 | 89 | 247 | 13.0 | 21.0 | 0.00 | 0.00 | 0.00 | 34 | 1018.2 |
| 20260905132029 | 89 | 224 | 12.0 | 20.0 | 0.00 | 0.00 | 0.00 | 34 | 1018.2 |
| 20260905131512 | 89 | 256 | 14.0 | 26.0 | 0.00 | 0.00 | 0.00 | 34 | 1018.2 |
| 20260905130012 | 89 | 239 | 12.0 | 22.0 | 0.00 | 0.00 | 0.00 | 34 | 1018.3 |
| 20260905125028 | 89 | 231 | 11.0 | 20.0 | 0.00 | 0.00 | 0.00 | 33 | 1018.3 |
| 20260905124512 | 90 | 228 | 9.0 | 20.0 | 0.00 | 0.00 | 0.00 | 33 | 1018.5 |
| 20260905123029 | 90 | 221 | 10.0 | 18.0 | 0.00 | 0.00 | 0.00 | 32 | 1018.6 |
| 20260905122512 | 90 | 229 | 7.0 | 16.0 | 0.00 | 0.00 | 0.00 | 33 | 1018.7 |
| 20260905120512 | 90 | 332 | 4.0 | 8.0 | 0.00 | 0.00 | 0.00 | 29 | 1018.8 |
| 20260905115029 | 89 | 218 | 7.0 | 13.0 | 0.00 | 0.00 | 0.00 | 31 | 1018.9 |
| 20260905114512 | 89 | 328 | 5.0 | 13.0 | 0.00 | 0.00 | 0.00 | 31 | 1018.9 |
| 20260905114027 | 89 | 339 | 7.0 | 13.0 | 0.00 | 0.00 | 0.00 | 32 | 1018.9 |
| 20260905113512 | 89 | 354 | 6.0 | 12.0 | 0.00 | 0.00 | 0.00 | 31 | 1019.0 |
| 20260905111512 | 89 | 307 | 4.0 | 8.0 | 0.00 | 0.00 | 0.00 | 32 | 1019.1 |
| 20260905111029 | 88 | 312 | 6.0 | 12.0 | 0.00 | 0.00 | 0.00 | 32 | 1019.1 |
| 20260905110513 | 89 | 300 | 8.0 | 12.0 | 0.00 | 0.00 | 0.00 | 31 | 1019.1 |
| 20260905110013 | 90 | 330 | 5.0 | 12.0 | 0.00 | 0.00 | 0.00 | 31 | 1019.2 |
| 20260905105512 | 88 | 314 | 2.0 | 10.0 | 0.00 | 0.00 | 0.00 | 33 | 1019.1 |
| 20260905104030 | 89 | 296 | 2.0 | 6.0 | 0.00 | 0.00 | 0.00 | 32 | 1019.2 |
| 20260905103514 | 88 | 328 | 3.0 | 9.0 | 0.00 | 0.00 | 0.00 | 33 | 1019.3 |
| 20260905102029 | 88 | 315 | 6.0 | 12.0 | 0.00 | 0.00 | 0.00 | 33 | 1019.4 |
| 20260905101511 | 87 | 283 | 7.0 | 12.0 | 0.00 | 0.00 | 0.00 | 33 | 1019.4 |
| 20260905100512 | 88 | 341 | 5.0 | 9.0 | 0.00 | 0.00 | 0.00 | 34 | 1019.4 |
| 20260905100012 | 88 | 243 | 2.0 | 8.0 | 0.00 | 0.00 | 0.00 | 34 | 1019.4 |
| 20260905095027 | 87 | 257 | 6.0 | 12.0 | 0.00 | 0.00 | 0.00 | 35 | 1019.4 |
| 20260905094512 | 87 | 254 | 8.0 | 14.0 | 0.00 | 0.00 | 0.00 | 34 | 1019.4 |
| 20260905093513 | 87 | 345 | 6.0 | 9.0 | 0.00 | 0.00 | 0.00 | 35 | 1019.5 |
| 20260905093029 | 86 | 270 | 4.0 | 9.0 | 0.00 | 0.00 | 0.00 | 36 | 1019.5 |
| 20260905092512 | 86 | 252 | 3.0 | 12.0 | 0.00 | 0.00 | 0.00 | 35 | 1019.5 |
| 20260905092029 | 86 | 273 | 9.0 | 14.0 | 0.00 | 0.00 | 0.00 | 36 | 1019.5 |
| 20260905091028 | 87 | 291 | 7.0 | 12.0 | 0.00 | 0.00 | 0.00 | 36 | 1019.5 |
| 20260905090011 | 86 | 242 | 6.0 | 12.0 | 0.00 | 0.00 | 0.00 | 37 | 1019.5 |
| 20260905085028 | 86 | 264 | 6.0 | 10.0 | 0.00 | 0.00 | 0.00 | 38 | 1019.6 |
| 20260905084512 | 86 | 246 | 3.0 | 9.0 | 0.00 | 0.00 | 0.00 | 37 | 1019.6 |
| 20260905082511 | 84 | 253 | 4.0 | 12.0 | 0.00 | 0.00 | 0.00 | 38 | 1019.4 |
| 20260905081511 | 84 | 247 | 6.0 | 12.0 | 0.00 | 0.00 | 0.00 | 38 | 1019.4 |
| 20260905073513 | 82 | 267 | 2.0 | 5.0 | 0.00 | 0.00 | 0.00 | 43 | 1019.3 |
| 20260905071028 | 81 | 209 | 0.0 | 1.0 | 0.00 | 0.00 | 0.00 | 42 | 1019.2 |
| 20260905070011 | 79 | 251 | 1.0 | 1.0 | 0.00 | 0.00 | 0.00 | 49 | 1019.2 |
| 20260905065027 | 79 | 251 | 0.0 | 1.0 | 0.00 | 0.00 | 0.00 | 48 | 1019.2 |
| 20260905063513 | 78 | 251 | 0.0 | 2.0 | 0.00 | 0.00 | 0.00 | 49 | 1019.2 |
| 20260905062032 | 77 | 251 | 0.0 | 2.0 | 0.00 | 0.00 | 0.00 | 50 | 1019.2 |
| 20260905060512 | 76 | 333 | 0.0 | 1.0 | 0.00 | 0.00 | 0.00 | 50 | 1019.1 |
| 20260905055028 | 77 | 359 | 0.0 | 0.0 | 0.00 | 0.00 | 0.00 | 49 | 1019.0 |
| 20260905053511 | 75 | 359 | 0.0 | 0.0 | 0.00 | 0.00 | 0.00 | 50 | 1018.9 |
| 20260905053028 | 74 | 359 | 0.0 | 1.0 | 0.00 | 0.00 | 0.00 | 51 | 1018.9 |
| 20260905052513 | 74 | 359 | 0.0 | 2.0 | 0.00 | 0.00 | 0.00 | 52 | 1018.9 |
| 20260905052026 | 73 | 359 | 0.0 | 1.0 | 0.00 | 0.00 | 0.00 | 54 | 1018.8 |
| 20260905051511 | 72 | 359 | 1.0 | 2.0 | 0.00 | 0.00 | 0.00 | 56 | 1018.7 |
| 20260905050511 | 72 | 301 | 0.0 | 1.0 | 0.00 | 0.00 | 0.00 | 55 | 1018.7 |
| 20260905044027 | 72 | 301 | 0.0 | 1.0 | 0.00 | 0.00 | 0.00 | 58 | 1018.3 |
| 20260905043511 | 72 | 301 | 0.0 | 1.0 | 0.00 | 0.00 | 0.00 | 57 | 1018.3 |
| 20260905043026 | 71 | 301 | 0.0 | 1.0 | 0.00 | 0.00 | 0.00 | 57 | 1018.3 |
| 20260905042026 | 71 | 301 | 0.0 | 1.0 | 0.00 | 0.00 | 0.00 | 58 | 1018.2 |
| 20260905040510 | 71 | 301 | 0.0 | 1.0 | 0.00 | 0.00 | 0.00 | 60 | 1018.2 |
| 20260905035511 | 71 | 301 | 0.0 | 1.0 | 0.00 | 0.00 | 0.00 | 61 | 1018.3 |
| 20260905035019 | 71 | 301 | 0.0 | 1.0 | 0.00 | 0.00 | 0.00 | 61 | 1018.2 |
| 20260905034019 | 71 | 301 | 1.0 | 2.0 | 0.00 | 0.00 | 0.00 | 62 | 1018.1 |
| 20260905032019 | 71 | 277 | 0.0 | 2.0 | 0.00 | 0.00 | 0.00 | 59 | 1018.1 |
| 20260905031510 | 71 | 266 | 1.0 | 3.0 | 0.00 | 0.00 | 0.00 | 60 | 1018.1 |
| 20260905031019 | 71 | 258 | 1.0 | 2.0 | 0.00 | 0.00 | 0.00 | 60 | 1018.2 |
| 20260905025512 | 71 | 261 | 1.0 | 2.0 | 0.00 | 0.00 | 0.00 | 64 | 1018.1 |
| 20260905024511 | 71 | 354 | 0.0 | 1.0 | 0.00 | 0.00 | 0.00 | 65 | 1018.1 |
| 20260905024019 | 71 | 354 | 0.0 | 0.0 | 0.00 | 0.00 | 0.00 | 65 | 1018.1 |
| 20260905021511 | 72 | 354 | 1.0 | 2.0 | 0.00 | 0.00 | 0.00 | 64 | 1018.2 |
| 20260905021020 | 72 | 289 | 0.0 | 1.0 | 0.00 | 0.00 | 0.00 | 64 | 1018.1 |
| 20260905020511 | 72 | 289 | 0.0 | 1.0 | 0.00 | 0.00 | 0.00 | 64 | 1018.1 |
| 20260905020011 | 72 | 289 | 1.0 | 2.0 | 0.00 | 0.00 | 0.00 | 64 | 1018.1 |
| 20260905015512 | 72 | 289 | 1.0 | 2.0 | 0.00 | 0.00 | 0.00 | 64 | 1018.1 |
| 20260905014511 | 72 | 51 | 0.0 | 1.0 | 0.00 | 0.00 | 0.00 | 65 | 1018.2 |
| 20260905013019 | 72 | 59 | 0.0 | 1.0 | 0.00 | 0.00 | 0.00 | 65 | 1018.3 |
| 20260905012019 | 72 | 70 | 1.0 | 2.0 | 0.00 | 0.00 | 0.00 | 64 | 1018.2 |
| 20260905011512 | 72 | 18 | 0.0 | 1.0 | 0.00 | 0.00 | 0.00 | 63 | 1018.2 |
| 20260905010011 | 72 | 40 | 0.0 | 1.0 | 0.00 | 0.00 | 0.00 | 63 | 1018.3 |
| 20260905005510 | 72 | 40 | 0.0 | 1.0 | 0.00 | 0.00 | 0.00 | 63 | 1018.2 |
| 20260905004021 | 73 | 40 | 0.0 | 1.0 | 0.00 | 0.00 | 0.00 | 63 | 1018.2 |
| 20260905002513 | 73 | 40 | 0.0 | 1.0 | 0.00 | 0.00 | 0.00 | 63 | 1018.2 |
| 20260905001513 | 73 | 40 | 0.0 | 1.0 | 0.00 | 0.00 | 0.00 | 63 | 1018.2 |
| 20260905000015 | 73 | 23 | 1.0 | 2.0 | 0.00 | 0.00 | 0.00 | 61 | 1018.2 |
| 20260904235021 | 74 | 290 | 1.0 | 1.0 | 0.00 | 0.00 | 0.00 | 61 | 1018.3 |
| 20260904234515 | 74 | 291 | 0.0 | 1.0 | 0.00 | 0.00 | 0.00 | 60 | 1018.3 |
| 20260904234022 | 74 | 290 | 0.0 | 1.0 | 0.00 | 0.00 | 0.00 | 60 | 1018.4 |
| 20260904233022 | 74 | 290 | 0.0 | 1.0 | 0.00 | 0.00 | 0.00 | 60 | 1018.5 |
| 20260904232513 | 74 | 290 | 0.0 | 0.0 | 0.00 | 0.00 | 0.00 | 59 | 1018.5 |
| 20260904230013 | 74 | 288 | 1.0 | 2.0 | 0.00 | 0.00 | 0.00 | 58 | 1018.6 |
| 20260904225514 | 74 | 285 | 1.0 | 2.0 | 0.00 | 0.00 | 0.00 | 58 | 1018.7 |
| 20260904225022 | 74 | 283 | 1.0 | 1.0 | 0.00 | 0.00 | 0.00 | 57 | 1018.7 |
| 20260904224513 | 74 | 285 | 1.0 | 2.0 | 0.00 | 0.00 | 0.00 | 57 | 1018.6 |
| 20260904224021 | 74 | 276 | 0.0 | 1.0 | 0.00 | 0.00 | 0.00 | 58 | 1018.8 |
| 20260904223514 | 74 | 276 | 0.0 | 1.0 | 0.00 | 0.00 | 0.00 | 57 | 1018.8 |
| 20260904223021 | 74 | 276 | 0.0 | 1.0 | 0.00 | 0.00 | 0.00 | 57 | 1018.8 |
| 20260904221513 | 75 | 287 | 1.0 | 3.0 | 0.00 | 0.00 | 0.00 | 56 | 1018.8 |
| 20260904221021 | 75 | 251 | 1.0 | 3.0 | 0.00 | 0.00 | 0.00 | 57 | 1018.9 |
| 20260904220515 | 75 | 264 | 1.0 | 3.0 | 0.00 | 0.00 | 0.00 | 59 | 1018.8 |
| 20260904215513 | 75 | 316 | 0.0 | 1.0 | 0.00 | 0.00 | 0.00 | 58 | 1018.9 |
| 20260904215021 | 76 | 316 | 0.0 | 2.0 | 0.00 | 0.00 | 0.00 | 57 | 1018.8 |
| 20260904214022 | 76 | 28 | 1.0 | 2.0 | 0.00 | 0.00 | 0.00 | 58 | 1018.9 |
| 20260904213021 | 75 | 66 | 1.0 | 2.0 | 0.00 | 0.00 | 0.00 | 57 | 1018.8 |
| 20260904211021 | 75 | 23 | 1.0 | 2.0 | 0.00 | 0.00 | 0.00 | 56 | 1019.0 |
| 20260904205513 | 75 | 66 | 2.0 | 3.0 | 0.00 | 0.00 | 0.00 | 58 | 1018.8 |
| 20260904204021 | 75 | 324 | 1.0 | 2.0 | 0.00 | 0.00 | 0.00 | 60 | 1019.0 |
| 20260904203513 | 75 | 310 | 1.0 | 2.0 | 0.00 | 0.00 | 0.00 | 60 | 1019.0 |
| 20260904203021 | 75 | 294 | 1.0 | 3.0 | 0.00 | 0.00 | 0.00 | 61 | 1019.1 |
| 20260904202513 | 75 | 299 | 2.0 | 5.0 | 0.00 | 0.00 | 0.00 | 61 | 1019.1 |
| 20260904202021 | 75 | 283 | 2.0 | 3.0 | 0.00 | 0.00 | 0.00 | 62 | 1019.1 |
| 20260904200513 | 75 | 324 | 3.0 | 3.0 | 0.00 | 0.00 | 0.00 | 63 | 1019.1 |
| 20260904200013 | 75 | 308 | 2.0 | 3.0 | 0.00 | 0.00 | 0.00 | 63 | 1019.1 |
| 20260904194021 | 76 | 312 | 2.0 | 3.0 | 0.00 | 0.00 | 0.00 | 63 | 1019.0 |
| 20260904193513 | 76 | 293 | 3.0 | 3.0 | 0.00 | 0.00 | 0.00 | 63 | 1018.9 |
| 20260904193021 | 76 | 307 | 2.0 | 3.0 | 0.00 | 0.00 | 0.00 | 63 | 1018.9 |
| 20260904192021 | 76 | 320 | 3.0 | 5.0 | 0.00 | 0.00 | 0.00 | 63 | 1018.8 |
| 20260904191020 | 76 | 296 | 3.0 | 7.0 | 0.00 | 0.00 | 0.00 | 63 | 1018.7 |
| 20260904190013 | 76 | 299 | 3.0 | 5.0 | 0.00 | 0.00 | 0.00 | 64 | 1018.7 |
| 20260904185513 | 76 | 283 | 3.0 | 7.0 | 0.00 | 0.00 | 0.00 | 64 | 1018.6 |
| 20260904184514 | 77 | 284 | 3.0 | 8.0 | 0.00 | 0.00 | 0.00 | 63 | 1018.4 |
| 20260904183021 | 77 | 296 | 3.0 | 5.0 | 0.00 | 0.00 | 0.00 | 62 | 1018.2 |
| 20260904182021 | 77 | 265 | 3.0 | 7.0 | 0.00 | 0.00 | 0.00 | 62 | 1018.0 |
| 20260904181513 | 77 | 302 | 3.0 | 7.0 | 0.00 | 0.00 | 0.00 | 61 | 1017.8 |
| 20260904174513 | 78 | 285 | 3.0 | 9.0 | 0.00 | 0.00 | 0.00 | 60 | 1017.4 |
| 20260904174028 | 78 | 243 | 4.0 | 9.0 | 0.00 | 0.00 | 0.00 | 60 | 1017.4 |
| 20260904173028 | 79 | 266 | 5.0 | 8.0 | 0.00 | 0.00 | 0.00 | 59 | 1017.4 |
| 20260904171030 | 80 | 259 | 5.0 | 9.0 | 0.00 | 0.00 | 0.00 | 56 | 1017.1 |
| 20260904165513 | 80 | 245 | 6.0 | 12.0 | 0.00 | 0.00 | 0.00 | 55 | 1017.1 |
| 20260904164513 | 81 | 259 | 6.0 | 12.0 | 0.00 | 0.00 | 0.00 | 55 | 1017.1 |
| 20260904163030 | 81 | 261 | 5.0 | 12.0 | 0.00 | 0.00 | 0.00 | 54 | 1017.0 |
| 20260904162514 | 81 | 258 | 7.0 | 15.0 | 0.00 | 0.00 | 0.00 | 54 | 1017.0 |
| 20260904162028 | 82 | 268 | 8.0 | 13.0 | 0.00 | 0.00 | 0.00 | 54 | 1017.1 |
| 20260904161514 | 82 | 255 | 7.0 | 14.0 | 0.00 | 0.00 | 0.00 | 53 | 1017.0 |
| 20260904160013 | 82 | 103 | 8.0 | 14.0 | 0.00 | 0.00 | 0.00 | 52 | 1017.0 |
| 20260904155513 | 82 | 259 | 6.0 | 12.0 | 0.00 | 0.00 | 0.00 | 53 | 1016.9 |
| 20260904153512 | 82 | 250 | 8.0 | 16.0 | 0.00 | 0.00 | 0.00 | 52 | 1016.9 |